Location: Flippin
(36.2774°N, 92.5927°W)
Time: 11:20:14
(UTC+00:00)

Hubble Space Telescope - Visible Passes

Search period start: 04 October 2024 00:00
Search period end: 14 October 2024 00:00
Orbit: 504 x 508 km, 28.5° (Epoch: 03 October)

Date Brightness Start Highest point End Pass type
(mag) Time Alt. Az. Time Alt. Az. Time Alt. Az.
04 Oct 2.6 10:11:40 20° SSE 10:11:40 20° SSE 10:13:33 10° SE visible
05 Oct 3.4 09:51:48 12° SE 09:51:48 12° SE 09:52:17 10° SE visible
05 Oct 2.9 11:27:14 10° SW 11:28:58 12° SSW 11:30:40 10° S visible
06 Oct 2.9 11:06:38 11° SW 11:07:39 11° SSW 11:08:59 10° S visible
07 Oct 3.1 10:46:48 10° SSW 10:46:48 10° SSW 10:47:01 10° S visible
